Location: Medlow Airstrip Trail, Medlow Bath NSW 2780, Australia
(33.6682°S, 150.3233°E)
Time: 05:30:44
(UTC+11:00)

Explorer 11/Cluster Stage 4 - Pass Details

Date: 24 September 2019
Orbit: 467 x 1259 km, 28.8° (Epoch: 21 October)

Event Time Altitude Azimuth Distance (km) Brightness Sun altitude
Rises 09:12:04 0° 294° (WNW) 2,907 9.3 40.0°
Reaches altitude 10° 09:14:16 10° 300° (WNW) 2,106 8.7 40.4°
Maximum altitude 09:19:00 45° 12° (NNE) 1,065 8.5 41.2°
Drops below altitude 10° 09:24:56 10° 83° (E) 2,635 10.2 42.2°
Sets 09:27:59 0° 88° (E) 3,721 10.6 42.7°
